This is the latest recevied weather packets stored in our database for station/object DL1MMS-10. If no packets are shown the sender has not sent any weather packets the latest 10 day(s).
| Time | Temp. | Humidity | Pressure | Rain* | Wind** | Luminosity | Snow |
|---|---|---|---|---|---|---|---|
| 1777619832 | 6.67° C | 52% | 1025.7 hPa | 0 mm | - | - | - |
| 1777619532 | 6.11° C | 53% | 1025.7 hPa | 0 mm | - | - | - |
| 1777619231 | 6.11° C | 53% | 1025.8 hPa | 0 mm | - | - | - |
| 1777618931 | 5.56° C | 53% | 1025.7 hPa | 0 mm | - | - | - |
| 1777618631 | 5.56° C | 54% | 1025.7 hPa | 0 mm | - | - | - |
| 1777618330 | 5° C | 55% | 1025.8 hPa | 0 mm | - | - | - |
| 1777618030 | 4.44° C | 55% | 1025.8 hPa | 0 mm | - | - | - |
| 1777617730 | 4.44° C | 56% | 1025.7 hPa | 0 mm | - | - | - |
| 1777617430 | 3.89° C | 56% | 1025.7 hPa | 0 mm | - | - | - |
| 1777617129 | 3.89° C | 57% | 1025.6 hPa | 0 mm | - | - | - |
| 1777616829 | 3.33° C | 58% | 1025.6 hPa | 0 mm | - | - | - |
| 1777616529 | 3.33° C | 59% | 1025.6 hPa | 0 mm | - | - | - |
| 1777616229 | 2.78° C | 60% | 1025.6 hPa | 0 mm | - | - | - |
| 1777615928 | 2.78° C | 60% | 1025.6 hPa | 0 mm | - | - | - |
| 1777615628 | 2.22° C | 61% | 1025.7 hPa | 0 mm | - | - | - |
| 1777615328 | 2.22° C | 61% | 1025.6 hPa | 0 mm | - | - | - |
| 1777615027 | 1.67° C | 61% | 1025.6 hPa | 0 mm | - | - | - |
| 1777614727 | 1.67° C | 62% | 1025.6 hPa | 0 mm | - | - | - |
| 1777614427 | 1.11° C | 63% | 1025.6 hPa | 0 mm | - | - | - |
| 1777614127 | 0.56° C | 63% | 1025.6 hPa | 0 mm | - | - | - |
| 1777613826 | 0.56° C | 63% | 1025.5 hPa | 0 mm | - | - | - |
| 1777613526 | 0.56° C | 63% | 1025.5 hPa | 0 mm | - | - | - |
| 1777613226 | 0° C | 63% | 1025.5 hPa | 0 mm | - | - | - |
| 1777612925 | 0° C | 63% | 1025.5 hPa | 0 mm | - | - | - |
| 1777612625 | 0° C | 63% | 1025.3 hPa | 0 mm | - | - | - |
* Rain latest hour (hover to see other rain measurements)
** Current wind speed in m/s (hover to see current wind gust speed)